User: anonymous
Location: Unspecified
(0.0000°N, 0.0000°E)
Time: 18:07:56
(UTC+02:00)
Language:

ASC 2 Rocket - Orbit

View from above orbital plane
View from above orbital plane
View from above satellite
View from above satellite

Ground track
Ground track

The orbit data is extracted from the following two-line orbital elements,

1 21228U 91028B   14263.72578987  .00000309  00000-0  75847-4 0  3917
2 21228 023.9917 320.7127 1145423 013.5585 143.1008 12.52836326 72180
Epoch (UTC): 20 September 2014 17:25:08
Eccentricity: 0.1145423
inclination: 23.9917°
perigee height: 556 km
apogee height: 2349 km
right ascension of ascending node: 320.7127°
argument of perigee: 13.5585°
revolutions per day: 12.52836326
mean anomaly at epoch: 143.1008°
orbit number at epoch: 7218

The dashed part of the orbit path shows where the satellite is in the earth's shadow,  

DLR